Tracking 19847 objects as of 17-Sep-2019
HD Live streaming from Space Station
objects crossing your sky now

MICROSAT-R DEB

Track MICROSAT-R DEB now!
10-day predictions


NORAD ID: 44179
Int'l Code: 2019-006BS
Perigee: 271.3 km
Apogee: 466.8 km
Inclination: 96.1 °
Period: 91.8 minutes
Semi major axis: 6740 km
RCS: Unknown
Launch date: January 24, 2019
Source: India (IND)
Launch site: SRIHARIKOTA (SRI)

Note: This is SATELLITE DEBRIS
aabbcc
Your satellite tracking list
Your tracking list is empty




NASA's NSSDC Master Catalog

Two Line Element Set (TLE):
1 44179U 19006BS  19259.96248247  .00082476  33319-5  39122-3 0  9990
2 44179  96.1196 149.2933 0145064  90.7748 271.0141 15.68940928 25976
Source of the keplerian elements: AFSPC